YAOGAN-35 02A (52907 NORAD) Tracking and Keplerian Element Data

This shows tracking and keplerian element data for the satellite.

Feedback or suggestion? Click here.




ElementValue
Catalog52907
NameYAOGAN-35 02A
Epoch Orbit1129
Epoch Day248.16843104
Epoch Year2022
RAAN176.3671
Inclination34.9971
Eccentricity0.0007302
Argument of Perigee238.5062
Mean Anonmoly261.1509
Mean Motion15.23021282
Decay Rate6.076E-05
L11 52907U 22068A 22248.16843104 .00006076 00000+0 25320-3 0 9999
L22 52907 34.9971 176.3671 0007302 238.5062 261.1509 15.23021282 11290

Live tracking and technical data element details for YAOGAN-35 02A (NORAD 52907). YAOGAN-35 02A can be tracked NOW for your location showing map with azimuth and elevation plus other details from your city location.

Track the satellite on the map from your city or location and see movement details for azimuth, elevation, latitude, longitude, range, height, and movement on the map or in text.







IsCatalogInMostPopularTable: catalog: 52907, numindb: 8
Update: records affected: 1



GetName: 52907 YAOGAN-35 02A

Hit Count: updated at: Sun, 25 Sep 2022 09:16:30 GMT